Date,TemperatureHighF,TemperatureAvgF,TemperatureLowF,DewpointHighF,DewpointAvgF,DewpointLowF,HumidityHigh,HumidityAvg,HumidityLow,PressureMaxIn,PressureMinIn,WindSpeedMaxMPH,WindSpeedAvgMPH,GustSpeedMaxMPH,PrecipitationSumIn
2013-1-1,79,72,64,65,62,59,92,73,58,30.18,30.03,10,2,14,0.00
2013-1-2,84,71,60,69,64,59,97,81,52,30.07,29.97,7,0,8,0.00
2013-1-3,83,71,65,70,65,-100,98,85,61,30.11,30.01,4,-12,9,0.03
2013-1-4,85,72,63,72,68,62,99,89,62,30.20,30.08,4,1,7,0.00
2013-1-5,77,69,63,71,67,62,97,94,80,30.23,30.14,4,0,5,0.24
2013-1-6,82,72,63,73,68,62,99,89,72,30.16,30.04,8,1,11,0.04
2013-1-7,77,70,66,70,68,66,98,92,76,30.14,30.05,3,0,9,0.04
2013-1-8,82,75,68,74,71,67,98,89,72,30.18,30.05,11,2,14,0.05
2013-1-9,82,77,73,73,71,70,94,83,73,30.26,30.14,12,4,18,0.05
2013-1-10,79,76,73,70,68,64,84,76,62,30.27,30.16,17,4,20,0.00
2013-1-11,80,75,69,71,68,66,91,80,70,30.23,30.14,9,3,14,0.00
2013-1-12,80,73,64,71,68,63,96,84,67,30.16,30.07,11,2,12,0.01
2013-1-13,80,74,63,69,66,62,97,78,61,30.11,30.05,17,2,18,0.00
2013-1-14,80,71,62,68,64,61,97,81,61,30.15,30.09,9,2,11,0.00
2013-1-15,77,71,63,71,67,62,98,87,73,30.12,30.03,7,1,11,0.01
2013-1-16,80,71,60,71,67,60,99,87,70,30.09,29.99,8,1,10,0.01
2013-1-17,81,70,60,72,66,55,99,87,69,30.08,29.95,14,2,16,0.10
2013-1-18,71,63,52,61,54,47,85,73,64,30.22,30.08,6,2,15,0.10
2013-1-19,71,67,63,68,64,59,97,89,69,30.20,30.08,2,0,6,0.05
2013-1-20,82,70,62,71,67,62,99,88,61,30.12,29.99,4,0,7,0.25
2013-1-21,80,71,64,72,68,63,99,89,73,30.05,29.94,2,0,8,0.01
2013-1-22,76,67,60,64,60,56,97,81,61,30.20,29.99,4,0,10,0.01
2013-1-23,74,65,57,60,56,54,92,74,52,30.28,30.18,7,1,11,0.00
2013-1-24,78,64,55,57,54,48,95,71,46,30.27,30.17,9,1,10,0.00
2013-1-25,76,64,53,60,56,51,96,77,51,30.27,30.16,5,0,8,0.00
2013-1-26,80,66,56,61,58,55,98,79,50,30.24,30.14,5,0,7,0.00
2013-1-27,78,69,58,64,61,57,98,78,57,30.27,30.18,7,1,11,0.00
2013-1-28,79,74,69,67,65,63,81,72,61,30.29,30.20,10,2,14,0.00
2013-1-29,81,74,65,70,67,63,96,81,66,30.21,30.10,9,2,16,0.00
2013-1-30,82,74,70,69,66,64,93,77,63,30.10,29.95,12,3,17,0.00
2013-1-31,71,66,57,71,60,44,98,82,56,30.16,29.93,5,1,14,0.01
2013-2-1,73,61,51,57,50,39,80,66,55,30.25,30.14,6,1,11,0.00
2013-2-2,73,62,51,55,50,39,93,66,48,30.24,30.10,7,1,10,0.00
2013-2-3,75,61,50,55,50,40,97,71,30,30.15,30.05,4,0,12,0.00
2013-2-4,77,61,46,57,49,43,94,70,34,30.13,30.01,6,1,13,0.00
2013-2-5,80,66,51,65,59,50,99,80,50,30.06,29.98,6,1,9,0.00
2013-2-6,80,69,58,68,63,57,99,82,62,30.09,30.00,5,1,9,0.00
2013-2-7,82,71,60,68,64,59,98,79,56,30.05,29.92,6,1,12,0.00
2013-2-8,84,74,65,72,68,61,96,84,63,30.01,29.89,7,1,10,0.00
2013-2-9,80,70,59,69,63,57,99,81,65,30.15,30.00,13,2,14,0.00
2013-2-10,75,70,64,66,63,58,90,76,70,30.24,30.13,9,3,15,0.04
2013-2-11,77,69,62,67,63,60,94,81,70,30.20,30.14,7,1,11,0.04
2013-2-12,88,77,68,71,68,64,93,75,45,30.01,29.95,8,2,12,0.00
2013-2-13,88,79,65,73,70,64,97,75,53,29.99,29.87,9,2,16,0.00
2013-2-14,82,70,62,73,68,61,98,91,73,30.00,29.84,7,1,16,0.73
2013-2-15,72,66,62,69,65,62,99,96,85,30.00,29.92,4,0,7,0.25
2013-2-16,71,63,54,65,58,47,99,86,55,30.06,29.86,6,1,20,0.25
2013-2-17,59,51,44,46,32,22,78,50,28,30.29,30.06,8,0,14,0.00
2013-2-18,68,59,44,58,46,34,78,64,49,30.30,30.18,14,2,16,0.00
2013-2-19,78,70,56,68,62,54,96,77,64,30.18,30.06,6,1,15,0.22
2013-2-20,79,70,63,68,65,61,99,86,54,30.09,29.99,7,0,10,0.23
2013-2-21,81,71,62,70,65,61,99,85,64,30.07,29.98,7,1,11,0.00
2013-2-22,81,76,71,73,71,69,93,83,70,30.08,30.00,10,2,16,0.00
2013-2-23,86,78,72,74,71,69,93,81,61,30.03,29.89,8,1,12,0.00
2013-2-24,91,78,71,74,71,66,98,80,46,29.98,29.87,5,0,9,0.00
2013-2-25,84,75,67,75,70,66,98,86,67,29.90,29.79,8,1,13,0.06
2013-2-26,87,79,74,74,72,70,93,79,59,29.88,29.78,10,2,20,0.06
2013-2-27,77,70,64,74,67,63,98,89,67,29.95,29.84,4,1,9,0.37
2013-2-28,70,64,59,64,56,50,97,78,56,29.99,29.89,6,1,11,0.37
2013-3-1,65,61,58,58,53,49,91,75,64,29.98,29.89,5,1,10,0.00
2013-3-2,65,57,49,50,44,39,81,63,46,30.02,29.94,9,2,20,0.00
2013-3-3,62,54,45,48,44,41,92,72,51,30.14,29.95,9,2,14,0.03
2013-3-4,70,53,41,44,39,31,92,61,31,30.20,30.10,5,1,12,0.00
2013-3-5,77,62,45,58,53,43,99,76,50,30.16,30.07,11,1,12,0.00
2013-3-6,78,67,52,66,52,30,95,61,28,30.09,29.94,10,4,18,0.00
2013-3-7,73,58,46,55,46,37,93,65,40,30.17,30.05,6,1,8,0.00
2013-3-8,77,62,50,56,51,44,98,71,31,30.18,30.08,3,0,9,0.01
2013-3-9,76,63,50,60,54,49,97,75,50,30.17,30.09,7,1,10,0.00
2013-3-10,75,68,59,62,57,54,86,68,53,30.13,30.05,11,3,15,0.00
2013-3-11,78,72,67,63,62,59,81,70,52,30.09,29.94,8,3,14,0.00
2013-3-12,83,73,65,70,66,62,90,78,60,29.98,29.89,8,2,14,0.00
2013-3-13,77,66,54,66,55,45,94,72,36,30.11,29.96,5,1,12,0.00
2013-3-14,73,61,52,54,47,40,96,65,34,30.19,30.07,6,1,11,0.00
2013-3-15,73,62,50,55,50,46,86,68,44,30.23,30.13,10,1,13,0.00
2013-3-16,76,65,49,61,54,48,98,71,47,30.18,30.07,8,2,12,0.00
2013-3-17,77,67,54,63,59,52,97,77,56,30.13,30.01,8,1,13,0.00
2013-3-18,80,70,61,70,66,59,97,86,68,30.06,29.95,8,2,15,0.10
2013-3-19,81,73,66,70,69,65,98,87,67,30.00,29.79,7,1,15,0.11
2013-3-20,88,74,62,72,64,60,99,76,46,29.96,29.79,8,1,14,0.00
2013-3-21,76,67,54,62,54,40,95,67,30,29.93,29.82,8,1,13,0.00
2013-3-22,76,67,52,70,61,51,98,81,61,29.98,29.88,10,2,14,0.00
2013-3-23,90,79,70,76,72,69,99,79,52,29.96,29.79,11,2,14,0.06
2013-3-24,90,80,74,75,72,70,97,78,55,29.87,29.68,13,4,31,0.08
2013-3-25,78,73,63,74,62,46,97,71,43,29.98,29.73,7,1,14,0.08
2013-3-26,66,60,51,47,41,36,68,51,35,30.20,29.97,14,3,20,0.00
2013-3-27,70,56,45,48,42,37,87,62,37,30.24,30.15,4,1,15,0.00
2013-3-28,74,60,49,52,46,40,89,62,33,30.25,30.15,7,1,9,0.00
2013-3-29,74,63,51,54,50,44,84,65,45,30.27,30.18,10,1,10,0.00
2013-3-30,75,64,52,62,53,51,98,71,44,30.24,30.14,9,2,11,0.00
2013-3-31,80,69,56,67,62,54,98,78,58,30.17,30.03,10,2,16,0.00
2013-4-1,87,74,65,73,68,63,97,82,47,30.04,29.93,6,1,13,0.32
2013-4-2,87,73,63,69,66,62,99,82,48,30.06,29.97,6,1,10,0.32
2013-4-3,83,74,65,71,68,64,98,81,60,30.05,29.97,8,2,14,0.00
2013-4-4,86,76,68,74,70,67,98,84,60,30.03,29.89,8,2,18,1.68
2013-4-5,71,68,65,70,66,64,98,96,88,29.97,29.80,6,1,15,0.19
2013-4-6,78,68,58,67,62,57,96,81,64,30.07,29.91,8,1,11,0.06
2013-4-7,76,72,65,66,64,62,88,75,66,30.12,30.00,6,2,11,0.07
2013-4-8,81,70,59,69,60,-100,99,75,49,30.11,30.03,6,-10,12,0.00
2013-4-9,80,72,63,69,66,62,99,82,68,30.13,30.03,12,3,14,0.00
2013-4-10,84,77,69,73,71,66,92,82,71,30.08,29.97,11,3,15,0.00
2013-4-11,84,78,74,74,73,71,90,82,70,30.00,29.88,12,4,20,0.02
2013-4-12,89,79,73,79,75,72,98,88,67,29.93,29.85,8,2,13,1.86
2013-4-13,87,77,72,77,74,71,97,90,69,29.95,29.86,4,1,9,0.28
2013-4-14,87,79,71,77,74,70,98,85,65,29.95,29.87,9,2,16,0.29
2013-4-15,91,78,71,78,74,69,98,88,57,30.04,29.91,8,1,13,0.45
2013-4-16,85,78,71,78,73,70,99,86,69,30.10,30.00,10,2,12,0.46
2013-4-17,84,77,70,72,68,-100,96,78,64,30.09,30.00,7,-9,11,0.00
2013-4-18,86,79,71,75,72,69,93,78,62,30.04,29.96,10,3,15,0.00
2013-4-19,88,82,77,75,73,71,86,76,60,30.02,29.94,14,4,17,0.00
2013-4-20,92,80,72,78,74,71,97,83,51,30.06,29.92,7,1,16,0.06
2013-4-21,84,77,71,75,72,70,97,85,65,30.07,29.96,10,2,16,0.06
2013-4-23,83,78,70,73,67,63,99,70,60,30.07,29.98,10,3,13,2.26
2013-4-24,82,75,64,70,64,61,96,71,56,30.11,30.02,9,2,12,0.00
2013-4-25,82,75,65,67,63,62,92,69,53,30.18,30.06,7,2,11,0.00
2013-4-26,82,74,62,69,65,60,97,76,59,30.20,30.09,8,2,12,0.00
2013-4-27,81,76,65,69,65,62,89,71,56,30.19,30.06,12,3,15,0.01
2013-4-28,82,76,72,67,65,63,82,68,56,30.10,29.98,9,3,15,0.01
2013-4-29,83,77,72,74,70,64,91,78,66,30.01,29.92,11,3,13,0.02
2013-4-30,86,76,69,75,71,68,97,85,64,29.98,29.91,6,1,16,0.05
2013-5-1,85,74,69,77,71,68,99,90,69,29.99,29.90,10,1,10,1.07
2013-5-2,80,71,69,75,70,68,99,96,83,29.93,29.77,11,1,16,1.69
2013-5-3,88,74,68,75,70,67,99,87,56,29.80,29.67,7,1,11,0.59
2013-5-4,88,77,68,73,69,66,99,79,53,29.79,29.67,9,2,12,0.60
2013-5-5,82,73,64,68,64,57,96,75,44,29.91,29.74,8,1,14,0.00
2013-5-6,87,72,56,67,62,55,98,73,44,30.00,29.90,5,0,10,0.00
2013-5-7,87,74,62,65,62,59,96,69,42,30.05,29.95,6,1,13,0.00
2013-5-8,89,74,60,67,60,-100,98,68,37,30.12,30.02,5,-10,10,0.00
2013-5-9,89,76,63,74,68,60,96,77,52,30.12,30.04,9,2,13,0.00
2013-5-10,88,80,71,75,73,69,96,79,58,30.11,30.00,12,2,13,0.00
2013-5-11,88,79,71,77,73,69,99,85,66,30.05,29.96,8,1,15,0.04
2013-5-12,93,79,71,77,73,70,98,83,51,30.05,29.93,10,1,11,1.02
2013-5-13,88,78,70,75,71,67,99,80,58,30.07,29.97,6,1,11,1.03
2013-5-14,81,75,67,68,63,58,90,67,49,30.16,30.04,8,2,12,0.00
2013-5-15,81,73,62,66,62,60,95,72,49,30.17,30.07,9,2,12,0.00
2013-5-16,83,75,62,67,63,60,95,69,51,30.10,30.02,7,2,13,0.00
2013-5-17,90,77,66,74,70,64,97,79,48,30.07,29.99,8,2,12,0.03
2013-5-18,85,78,71,76,73,70,98,84,69,30.08,30.00,8,2,13,0.08
2013-5-19,87,78,70,73,70,67,97,77,57,30.08,29.98,8,2,12,0.00
2013-5-20,80,75,69,76,72,68,98,91,82,30.05,29.95,4,1,12,2.47
2013-5-21,83,76,69,75,72,68,98,86,66,30.02,29.91,10,2,13,2.81
2013-5-22,87,76,72,76,73,71,97,90,66,29.95,29.87,7,1,11,0.65
2013-5-23,94,82,72,77,74,69,99,79,45,29.99,29.89,6,1,10,0.66
2013-5-24,95,82,73,77,74,69,98,80,48,30.04,29.93,6,1,10,0.13
2013-5-25,85,80,73,75,70,66,96,73,55,30.14,30.02,10,3,15,0.13
2013-5-26,84,77,68,71,66,62,90,69,57,30.15,30.08,12,2,15,0.00
2013-5-27,85,78,70,74,71,65,95,79,69,30.13,30.04,10,3,16,0.20
2013-5-28,82,78,74,75,73,72,96,86,76,30.09,30.02,11,4,17,0.01
2013-5-29,81,75,71,75,72,69,98,90,79,30.07,30.00,13,3,20,0.44
2013-5-30,82,78,72,76,73,71,97,86,77,30.05,29.98,16,6,22,0.12
2013-5-31,84,79,74,76,75,73,96,88,74,30.03,29.98,12,4,15,0.28
2013-6-1,83,76,73,80,75,73,99,95,81,30.01,29.94,5,1,9,1.98
2013-6-2,93,79,71,80,75,71,99,87,58,29.98,29.90,6,1,11,0.01
2013-6-3,91,81,72,78,75,72,98,84,60,30.02,29.89,5,1,9,0.03
2013-6-4,86,79,73,79,75,72,98,88,66,30.03,29.94,5,1,11,0.01
2013-6-5,84,81,78,78,77,75,94,87,79,30.00,29.87,8,2,11,0.02
2013-6-6,90,80,76,80,77,73,97,89,70,29.89,29.76,13,4,25,0.13
2013-6-7,92,78,74,79,75,73,98,91,64,29.98,29.82,9,2,16,3.54
2013-6-8,89,80,74,79,76,73,98,88,70,30.08,29.95,10,1,13,3.55
2013-6-9,87,83,79,77,76,75,89,80,69,30.09,30.01,11,4,18,0.00
2013-6-10,88,83,80,78,77,76,89,81,71,30.07,29.99,10,3,12,0.00
2013-6-11,91,83,77,80,78,75,96,85,62,30.08,29.99,9,1,12,0.98
2013-6-12,92,79,76,80,76,73,98,90,62,30.06,30.00,6,0,13,0.01
2013-6-13,92,80,73,79,75,72,99,85,56,30.03,29.92,5,0,11,0.04
2013-6-14,95,81,73,78,74,72,97,81,51,29.95,29.86,8,1,14,0.04
2013-6-15,94,83,74,78,76,73,98,80,55,30.04,29.91,6,1,10,0.05
2013-6-16,90,83,74,78,76,73,96,80,60,30.07,29.99,7,2,10,0.00
2013-6-17,92,84,76,79,76,75,96,78,62,30.06,29.99,10,2,12,0.00
2013-6-18,91,84,76,78,76,74,96,78,61,30.05,29.96,6,2,11,0.00
2013-6-19,91,84,77,79,76,75,96,79,63,30.03,29.96,10,1,11,0.00
2013-6-20,93,80,73,79,73,-100,97,81,57,30.07,30.00,6,-9,12,0.05
2013-6-21,90,82,74,80,75,72,98,79,55,30.09,30.01,7,2,10,0.87
2013-6-22,90,83,75,77,75,73,96,76,60,30.08,30.02,9,2,12,0.00
2013-6-23,89,83,77,79,75,72,89,76,63,30.11,30.03,9,3,14,0.03
2013-6-24,88,83,77,77,75,74,92,78,67,30.14,30.06,9,3,14,0.28
2013-6-25,89,82,75,79,76,73,97,82,68,30.11,30.02,9,2,14,0.11
2013-6-26,91,84,78,79,76,74,92,78,62,30.06,29.99,10,2,12,0.02
2013-6-27,90,82,76,80,76,72,95,82,62,30.04,29.94,4,1,10,0.05
2013-6-28,92,82,73,79,76,71,97,82,59,29.98,29.84,8,1,11,2.10
2013-6-29,95,81,74,80,76,72,98,86,54,29.90,29.82,6,1,16,0.11
2013-6-30,91,80,76,79,76,74,95,88,63,29.93,29.84,12,1,15,0.47
2013-7-1,90,81,76,80,76,73,96,86,66,30.02,29.90,13,1,19,0.01
2013-7-2,89,82,76,79,77,74,96,85,72,30.09,29.95,8,2,12,0.03
2013-7-3,89,82,77,78,76,74,93,83,69,30.11,30.02,11,3,18,0.24
2013-7-4,88,82,75,78,76,72,97,82,69,30.15,30.05,13,3,18,0.53
2013-7-5,87,81,75,78,76,74,97,86,74,30.11,30.03,11,3,19,0.71
2013-7-6,88,83,79,77,76,74,91,80,65,30.10,30.01,11,4,15,0.01
2013-7-7,87,83,77,77,76,74,92,78,68,30.08,30.00,12,3,16,0.01
2013-7-8,88,82,75,76,75,73,93,78,62,30.12,30.05,8,2,14,0.00
2013-7-9,88,81,74,76,74,71,96,79,60,30.12,30.03,10,1,12,0.00
2013-7-10,85,78,73,77,74,72,97,87,73,30.07,29.98,6,1,10,0.02
2013-7-11,92,81,74,80,75,73,98,83,60,30.02,29.92,10,1,13,0.02
2013-7-12,91,80,75,79,75,73,98,85,56,29.96,29.88,3,0,11,1.83
2013-7-13,90,76,72,78,73,71,98,91,63,30.01,29.90,5,1,11,0.67
2013-7-14,90,78,72,77,74,71,98,88,62,30.08,29.97,8,1,15,1.26
2013-7-15,89,80,72,79,74,71,98,83,61,30.07,29.99,12,2,13,1.29
2013-7-16,84,78,74,76,73,71,95,84,70,30.12,30.03,13,2,19,0.24
2013-7-17,80,75,72,77,73,70,98,94,81,30.13,30.03,6,1,15,0.06
2013-7-18,85,76,72,78,74,70,98,93,77,30.11,30.03,7,1,18,1.82
2013-7-19,89,81,73,80,77,73,99,88,69,30.11,30.02,6,1,13,1.83
2013-7-20,90,82,76,81,78,73,95,87,68,30.09,30.02,7,1,12,0.04
2013-7-21,91,81,76,80,77,72,97,87,69,30.12,30.03,5,1,10,0.06
2013-7-22,93,84,76,80,76,74,97,79,55,30.12,30.05,5,1,10,0.00
2013-7-23,97,86,76,79,76,72,96,74,46,30.09,29.95,5,1,10,0.00
2013-7-24,95,85,77,80,76,72,97,76,50,30.01,29.89,5,1,13,0.14
2013-7-25,94,85,76,78,76,74,93,75,58,30.00,29.90,8,2,11,0.00
2013-7-26,95,82,76,79,75,-100,96,80,57,30.01,29.92,6,-10,10,0.07
2013-7-27,91,80,75,80,77,74,97,90,68,29.99,29.92,7,0,13,1.19
2013-7-28,89,81,75,80,77,73,97,88,71,30.05,29.94,6,0,12,0.40
2013-7-29,90,82,75,80,77,74,98,86,66,30.11,30.00,6,1,12,0.00
2013-7-30,90,84,75,81,78,73,96,82,67,30.14,30.05,8,2,13,0.65
2013-7-31,89,83,77,79,76,74,97,80,63,30.09,29.99,9,2,14,0.00
2013-8-1,89,83,76,77,75,72,94,78,63,30.03,29.92,9,2,12,0.00
2013-8-2,93,82,75,78,76,72,97,82,59,30.04,29.90,5,1,9,0.43
2013-8-3,88,76,72,80,72,-100,98,91,71,30.12,30.00,9,-21,13,0.11
2013-8-4,97,84,76,82,76,74,98,80,49,30.09,29.97,4,0,9,0.01
2013-8-5,93,81,77,81,77,73,96,87,63,30.02,29.93,8,1,13,0.16
2013-8-6,95,82,76,81,77,74,97,85,59,29.97,29.86,5,0,13,0.11
2013-8-7,91,83,75,81,77,74,98,82,64,29.96,29.88,9,2,12,0.12
2013-8-8,90,84,79,79,77,74,94,77,65,30.00,29.91,8,3,16,0.13
2013-8-9,87,82,79,78,75,73,88,79,66,30.05,29.93,10,2,16,0.10
2013-8-10,91,85,78,78,77,75,90,77,63,30.10,30.01,11,3,15,0.00
2013-8-11,91,85,80,79,77,76,88,77,64,30.11,30.04,9,2,13,0.00
2013-8-12,90,82,75,78,76,74,97,81,63,30.09,30.00,7,2,12,0.02
2013-8-13,93,84,77,80,76,74,96,78,57,30.03,29.94,7,1,11,0.00
2013-8-14,94,84,75,79,76,73,97,79,60,30.01,29.91,8,2,13,0.00
2013-8-15,89,81,75,80,77,74,97,87,73,30.04,29.95,5,1,9,0.01
2013-8-16,91,85,78,81,78,76,96,82,61,30.03,29.96,9,2,13,0.01
2013-8-17,91,86,81,80,78,77,89,79,68,30.06,29.98,9,2,13,0.00
2013-8-18,90,85,81,80,78,76,87,80,68,30.05,29.97,10,3,16,0.06
2013-8-19,90,84,77,80,77,75,94,81,66,30.05,29.95,8,2,15,0.05
2013-8-20,90,84,79,78,77,74,92,78,62,30.04,29.96,12,2,14,0.08
2013-8-21,88,83,79,81,78,74,96,86,72,30.05,29.97,10,2,14,0.09
2013-8-22,90,83,73,80,78,72,98,84,67,30.06,29.94,9,2,23,0.36
2013-8-23,91,83,76,80,77,75,97,83,63,29.99,29.92,13,1,13,0.01
2013-8-24,92,83,77,81,76,73,97,81,62,30.09,29.95,11,2,13,0.03
2013-8-25,86,80,76,78,76,74,97,87,72,30.13,30.01,6,1,10,0.08
2013-8-26,90,81,74,80,75,72,96,83,65,30.09,29.99,6,1,12,0.03
2013-8-27,87,77,73,77,70,-100,98,84,61,30.04,29.95,4,-21,7,0.07
2013-8-28,88,79,72,78,75,68,97,87,66,30.02,29.93,8,1,12,0.44
2013-8-29,91,82,73,79,76,72,97,82,62,30.01,29.91,9,1,9,0.00
2013-8-30,94,84,75,79,75,72,97,77,50,29.99,29.88,6,1,11,0.00
2013-8-31,94,80,74,80,75,73,98,86,58,29.96,29.89,4,0,9,0.80
2013-9-1,92,79,72,81,76,72,100,91,57,29.98,29.91,4,0,8,0.06
2013-9-2,94,79,74,82,76,72,99,91,53,30.01,29.92,19,0,24,0.88
2013-9-3,91,80,72,80,76,72,100,88,60,30.01,29.91,4,0,10,0.04
2013-9-4,86,81,77,81,78,76,98,91,79,30.05,29.93,4,1,9,0.45
2013-9-5,90,83,78,80,78,77,97,85,69,30.05,29.98,4,1,9,0.00
2013-9-6,93,84,77,81,77,75,98,80,58,30.02,29.90,6,1,9,0.00
2013-9-7,87,76,73,80,72,-100,98,90,77,29.97,29.89,5,-21,18,0.06
2013-9-8,93,79,72,79,75,71,99,88,57,29.93,29.84,7,0,10,0.02
2013-9-9,89,82,73,79,75,72,98,82,65,29.98,29.88,8,2,11,0.00
2013-9-10,89,82,75,79,76,73,99,84,66,30.02,29.93,9,2,15,0.08
2013-9-11,83,78,73,79,76,72,98,91,80,30.04,29.95,6,1,14,1.72
2013-9-12,85,80,75,79,77,74,98,90,78,30.00,29.87,3,0,6,0.02
2013-9-13,95,83,73,81,76,73,99,81,52,29.89,29.78,5,1,9,0.00
2013-9-14,93,84,74,80,76,73,98,78,55,29.95,29.81,7,1,10,0.00
2013-9-15,87,80,77,80,77,74,95,90,79,30.03,29.90,6,1,11,0.14
2013-9-16,85,80,77,79,77,75,98,90,82,30.02,29.94,5,1,13,0.04
2013-9-17,84,79,76,79,76,74,98,89,82,30.01,29.89,6,1,8,0.15
2013-9-18,87,80,74,78,76,73,97,88,70,30.00,29.90,6,1,9,0.09
2013-9-19,89,80,74,80,76,73,99,87,69,29.99,29.91,7,1,11,0.17
2013-9-20,87,79,72,76,71,-100,98,80,58,29.98,29.88,6,-10,12,0.01
2013-9-21,89,81,72,77,74,70,97,82,64,29.90,29.75,5,1,8,0.01
2013-9-22,94,84,75,79,76,72,97,79,50,29.85,29.74,6,1,9,0.01
2013-9-23,89,80,77,81,78,75,98,91,71,29.96,29.84,8,0,8,0.80
2013-9-24,95,82,74,82,77,73,99,84,58,29.95,29.85,6,1,13,1.19
2013-9-25,89,80,74,81,76,72,96,87,65,29.89,29.79,6,1,12,0.48
2013-9-26,89,80,76,83,78,75,97,91,74,29.85,29.78,7,1,13,0.18
2013-9-27,79,76,74,78,75,74,99,98,95,29.86,29.80,1,0,4,0.01
2013-10-5,80,69,77,73,51,-100,86,71,77,29.95,29.95,1,-125,2,0.00
2013-10-6,91,81,73,79,73,69,98,78,49,29.95,29.85,5,1,8,0.10
2013-10-7,93,79,73,77,74,71,98,85,54,29.88,29.79,6,1,18,0.09
2013-10-8,92,82,75,80,75,72,99,83,58,29.92,29.83,6,1,10,0.04
2013-10-9,87,78,71,78,74,70,96,87,73,29.97,29.88,4,0,8,0.00
2013-10-10,88,79,71,76,72,70,98,82,63,29.99,29.92,6,1,9,0.00
2013-10-11,88,77,68,73,69,67,98,77,52,29.99,29.92,7,1,12,0.00
2013-10-12,89,77,67,75,69,66,97,79,53,30.01,29.93,6,1,9,0.00
2013-10-13,86,77,70,75,69,65,97,77,53,30.03,29.94,6,1,9,0.00
2013-10-14,86,76,68,73,68,-100,98,79,56,30.00,29.89,5,-10,8,0.00
2013-10-15,87,78,70,75,71,69,99,82,56,29.94,29.85,5,0,7,0.00
2013-10-16,87,76,69,74,70,68,98,83,57,29.93,29.87,4,1,9,0.00
2013-10-17,86,78,69,76,72,68,98,82,63,29.95,29.87,6,1,10,0.00
2013-10-18,88,80,70,77,73,69,98,81,62,29.97,29.88,6,1,10,0.00
2013-10-19,92,82,72,76,74,70,97,79,58,29.95,29.85,7,1,9,0.00
2013-10-20,93,82,75,80,76,73,96,83,54,29.94,29.86,6,1,10,0.00
2013-10-21,90,82,74,79,76,73,97,82,64,29.98,29.88,7,1,8,0.00
2013-10-22,92,83,73,79,76,73,98,82,59,29.94,29.81,6,1,13,0.00
2013-10-23,90,81,75,77,74,70,96,82,61,29.94,29.80,7,1,9,0.00
2013-10-24,80,76,71,70,67,63,85,74,65,30.08,29.92,4,0,7,0.01
2013-10-25,82,75,68,68,66,64,88,73,56,30.13,30.05,9,1,12,0.00
2013-10-26,83,73,65,69,65,63,94,78,55,30.13,30.03,6,1,9,0.00
2013-10-27,84,73,64,67,64,61,94,76,55,30.07,30.00,5,1,8,0.00
2013-10-28,85,74,63,70,65,62,99,78,49,30.12,30.03,5,1,11,0.00
2013-10-29,84,75,64,72,68,63,99,78,58,30.15,30.07,7,2,12,0.00
2013-10-30,84,78,68,70,68,65,93,72,57,30.17,30.07,9,2,15,0.00
2013-10-31,85,79,71,74,71,68,94,78,62,30.09,29.98,8,2,13,0.01
2013-11-1,88,80,71,76,74,70,96,80,60,29.99,29.87,6,1,10,0.00
2013-11-2,92,79,70,75,71,64,98,79,47,29.92,29.79,4,1,11,0.00
2013-11-3,81,73,68,68,64,61,87,73,59,30.01,29.88,8,1,13,0.00
2013-11-4,80,76,73,70,65,59,85,70,50,30.06,29.98,11,3,22,0.05
2013-11-5,82,79,76,72,70,66,82,74,64,30.07,29.99,12,4,18,0.00
2013-11-6,83,78,69,72,70,67,93,77,64,30.05,29.97,9,2,15,0.00
2013-11-7,89,77,68,74,70,67,98,82,53,30.00,29.90,3,0,7,0.00
2013-11-8,84,76,70,73,71,69,96,85,62,30.02,29.92,8,2,16,0.25
2013-11-9,79,75,73,74,73,71,98,91,82,30.09,29.99,8,3,16,1.01
2013-11-10,83,78,71,74,72,69,91,81,72,30.10,30.02,8,2,11,0.00
2013-11-11,83,76,69,74,70,67,97,82,68,30.09,30.02,8,2,12,0.00
2013-11-12,84,76,68,73,69,66,99,80,61,30.06,29.95,5,1,7,0.00
2013-11-13,76,71,68,68,65,58,89,80,66,30.19,29.98,8,2,17,0.09
2013-11-14,75,72,68,63,59,56,72,64,57,30.21,30.12,11,3,14,0.00
2013-11-15,80,77,72,71,67,63,87,73,66,30.12,30.01,9,3,14,0.00
2013-11-16,81,78,74,73,71,69,93,79,70,30.07,30.00,8,1,14,0.12
2013-11-17,84,78,71,74,72,69,95,81,66,30.06,29.98,9,1,12,0.00
2013-11-18,84,76,69,75,72,68,98,87,69,30.01,29.90,1,0,4,0.02
2013-11-19,85,76,71,75,72,70,97,88,67,29.93,29.83,3,0,7,0.00
2013-11-20,86,76,69,77,73,68,99,90,68,30.04,29.91,5,0,6,0.82
2013-11-21,81,76,72,76,73,71,99,91,77,30.11,30.02,4,1,13,1.37
2013-11-22,81,77,74,73,71,69,93,81,73,30.13,30.05,10,2,15,0.01
2013-11-23,82,76,70,73,71,69,94,84,71,30.06,29.95,6,1,11,0.00
2013-11-24,82,73,66,72,68,65,99,85,62,30.12,29.97,11,1,15,0.04
2013-11-25,76,73,71,70,66,61,94,79,70,30.18,30.03,13,4,19,0.11
2013-11-26,84,78,72,76,74,70,96,87,73,30.03,29.81,9,3,17,0.21
2013-11-27,78,71,58,76,66,53,98,84,58,30.10,29.77,11,2,18,0.99
2013-11-28,74,61,47,61,54,45,93,78,56,30.23,30.10,9,1,11,0.00
2013-11-29,77,68,58,64,60,57,96,77,59,30.25,30.17,14,2,14,0.00
2013-11-30,77,68,60,70,64,59,98,87,72,30.19,30.09,8,1,10,0.35
2013-12-1,76,67,60,73,66,59,99,96,86,30.09,29.93,2,0,5,0.81
2013-12-2,76,67,60,68,64,59,99,92,66,29.92,29.81,5,1,8,0.02
2013-12-3,80,69,58,68,64,58,99,85,57,29.98,29.88,3,0,8,0.01
2013-12-4,82,72,63,72,67,62,99,85,61,30.07,29.97,4,0,10,0.00
2013-12-5,82,73,63,74,69,62,99,86,68,30.15,30.06,7,1,11,0.00
2013-12-6,84,76,67,72,70,65,95,81,64,30.16,30.07,8,1,13,0.00
2013-12-7,84,73,64,74,69,64,99,87,62,30.20,30.12,5,0,7,0.04
2013-12-8,83,76,69,72,70,67,97,83,66,30.19,30.10,8,2,14,0.07
2013-12-9,83,77,69,72,69,65,94,77,56,30.18,30.09,6,1,13,0.00
2013-12-10,86,76,67,74,71,66,98,86,65,30.14,30.06,4,0,8,0.00
2013-12-11,83,74,68,77,71,67,99,89,70,30.18,30.10,5,0,10,0.00
2013-12-12,80,70,63,73,66,60,99,88,73,30.21,30.12,7,1,10,0.01
2013-12-13,78,72,62,70,64,59,94,77,66,30.18,30.08,11,3,14,0.04
2013-12-14,83,77,71,73,71,69,95,83,72,30.09,29.97,9,2,15,0.04
2013-12-15,85,76,70,76,72,68,98,89,74,30.04,29.92,6,1,14,0.00
2013-12-16,75,68,61,68,62,59,94,83,68,30.14,30.02,2,0,7,0.00
2013-12-17,78,66,58,65,60,57,98,83,59,30.16,30.08,7,1,10,0.00
2013-12-18,76,65,57,61,58,56,98,81,55,30.22,30.12,5,0,11,0.01
2013-12-19,78,67,54,65,60,53,99,79,59,30.22,30.13,11,1,12,0.00
2013-12-20,81,74,62,71,68,61,96,81,68,30.17,30.09,8,2,13,0.00
2013-12-21,82,78,75,74,72,70,89,83,72,30.12,30.05,11,3,16,0.00
2013-12-22,84,79,76,74,73,72,89,82,69,30.14,30.06,7,2,16,0.00
2013-12-23,84,77,69,75,72,68,97,85,71,30.16,30.09,7,1,12,0.00
2013-12-24,82,70,65,75,67,61,99,89,69,30.16,30.07,6,0,15,0.01
2013-12-25,77,72,70,68,66,65,93,82,73,30.15,30.08,7,2,15,0.07
2013-12-26,78,74,71,71,70,68,93,86,78,30.15,30.05,5,1,8,0.06
2013-12-27,80,74,66,73,70,65,99,87,73,30.17,30.07,7,2,13,0.13
2013-12-28,79,76,74,73,71,69,90,84,79,30.16,30.00,10,3,16,0.00
2013-12-29,82,77,75,75,74,72,96,88,78,30.02,29.91,9,2,15,0.00
2013-12-30,80,73,68,74,70,65,98,90,75,30.13,29.96,5,0,6,0.00
2013-12-31,79,72,66,69,65,63,90,78,65,30.20,30.09,7,2,13,0.00
2014-1-1,81,74,71,74,71,65,98,89,74,30.17,30.03,8,1,13,0.25
2014-1-2,86,75,66,74,70,66,100,84,57,30.02,29.85,7,1,15,0.01